Wind_Speed
41 39 35 33 32 31 29 28 27 27 26 26 25 24 24 24 22 24 26 27 28 30 33 30 27 24 22 18 12 11 13 13 13 8 9 13 14 14 21 22 19 22 16 7 2
44 42 40 38 37 36 34 32 32 32 32 32 30 29 29 28 27 26 27 28 29 31 32 31 28 23 21 18 17 12 11 16 15 14 10 13 9 18 14 15 19 23 20 15 5
43 44 43 43 41 41 39 37 37 37 37 37 37 34 34 34 32 32 31 30 30 31 33 33 26 23 20 17 16 17 13 15 14 12 14 14 16 19 8 13 20 24 23 11 9
39 40 42 43 43 43 42 40 40 41 40 41 40 40 39 39 36 35 33 32 30 30 34 31 25 22 20 19 15 15 18 16 16 15 15 16 19 21 10 7 16 25 24 17 4
34 35 36 36 36 37 37 37 37 39 41 42 41 41 41 42 40 36 34 31 28 28 29 27 24 21 20 20 18 15 16 18 17 15 16 16 16 17 11 14 17 20 22 21 21
38 36 35 34 33 33 33 32 33 33 34 35 35 34 33 34 32 32 30 29 27 25 27 27 24 22 20 21 19 18 16 15 15 16 14 15 16 11 14 14 14 19 22 16 14
44 43 42 40 39 39 37 36 35 36 36 37 36 35 32 34 30 31 29 29 27 26 29 28 23 21 20 21 20 19 17 16 13 13 16 16 16 13 12 14 12 19 21 16 14
50 49 48 48 46 46 45 44 44 43 44 43 42 41 36 38 34 34 32 31 30 29 29 26 25 20 19 17 22 19 17 15 15 17 17 19 18 18 15 7 11 14 15 14 11
49 52 52 52 54 54 52 52 50 50 49 49 47 45 41 43 39 38 37 34 31 30 28 26 25 20 18 16 19 19 17 14 13 15 18 19 20 16 12 12 10 11 14 13 14
53 52 53 53 51 54 57 55 53 52 51 51 50 49 47 47 46 43 42 37 34 31 29 27 23 18 18 17 18 19 18 16 14 13 19 23 22 21 23 25 24 21 17 10 16
52 53 54 53 53 52 52 51 50 50 49 50 50 48 48 48 45 42 42 38 35 28 25 25 22 16 17 19 16 18 19 17 16 17 17 19 19 19 19 21 20 18 13 16 24
49 50 51 51 52 54 55 55 55 55 53 52 52 50 49 49 48 43 41 37 32 26 22 26 20 17 20 18 18 18 18 18 18 17 20 21 23 23 24 22 22 21 21 19 22
47 47 47 47 49 52 52 52 52 52 52 49 50 49 49 48 46 42 37 35 31 26 24 24 20 18 20 23 20 17 16 17 19 19 20 23 22 23 26 26 26 22 24 25 20
44 45 46 46 46 47 48 50 50 50 50 48 49 46 47 46 44 41 36 32 31 27 24 23 22 18 19 26 22 17 16 18 16 17 20 23 25 25 23 24 26 26 26 25 27
34 34 37 42 45 46 45 45 47 48 48 45 45 47 46 44 43 42 37 33 33 30 27 25 22 21 25 27 26 19 19 17 16 18 17 21 26 27 26 25 24 23 23 23 23
28 29 31 34 38 41 44 44 43 42 44 43 44 45 45 43 43 43 40 36 35 33 33 28 28 29 29 27 27 21 21 21 22 23 19 22 26 28 27 27 26 22 21 22 21
26 27 27 32 32 33 36 39 41 40 39 41 42 44 43 41 42 42 42 39 37 37 37 35 35 34 32 29 30 26 23 27 29 26 23 25 25 27 26 26 28 26 25 23 22
30 30 27 31 28 31 30 31 35 39 39 38 39 41 41 41 40 40 39 38 36 38 39 36 37 36 34 32 31 29 29 31 32 27 25 27 31 28 26 23 26 26 26 25 21
33 34 32 32 29 31 27 27 28 34 37 36 35 37 38 39 40 38 37 35 33 35 36 35 36 36 34 31 29 30 30 32 31 31 28 28 32 31 25 22 25 28 25 22 21
36 34 34 33 34 32 29 24 25 30 33 33 34 36 36 35 36 37 37 37 37 38 38 37 36 37 34 33 31 31 30 28 30 31 29 29 31 27 23 23 27 26 24 22 19
34 34 34 35 35 35 31 24 24 30 30 32 31 34 34 34 35 37 39 38 38 40 40 40 37 36 35 33 33 30 28 27 27 30 30 27 29 19 21 27 30 23 23 16 16
36 35 36 34 34 36 34 27 27 30 30 31 30 30 30 31 31 32 32 34 36 38 39 35 34 35 33 32 31 29 29 27 26 23 23 22 25 18 21 29 29 22 22 15 13
40 38 38 37 35 34 35 32 28 32 33 30 29 29 29 30 28 28 28 28 30 33 33 29 31 31 31 31 29 25 24 22 20 18 17 17 22 20 22 32 26 26 20 16 11
46 43 41 39 39 36 36 33 31 33 36 32 31 30 30 30 29 28 27 29 31 29 25 25 25 26 28 27 23 21 19 18 19 19 17 17 16 21 30 27 29 24 21 15 19
44 49 47 45 41 40 37 37 33 35 38 36 33 32 32 31 29 28 26 26 27 25 25 25 24 23 23 22 21 18 20 22 20 20 19 19 16 24 27 29 29 23 21 16 10
45 46 49 49 47 44 41 38 35 35 41 41 34 34 35 34 33 30 28 26 24 25 26 25 23 23 23 21 21 22 23 24 21 20 20 17 18 30 31 31 28 23 21 18 11
43 47 47 49 49 48 45 43 38 39 41 44 38 35 37 37 36 32 30 28 26 24 24 22 22 22 21 20 22 22 25 24 18 15 18 21 28 32 33 31 25 22 22 21 17
Wind_Direction
250 251 253 255 257 259 262 266 269 274 277 280 286 289 289 297 304 312 318 322 323 325 330 335 335 333 341 350 352 306 305 331 347 1 67 34 37 34 40 62 51 48 47 34 81
251 254 254 257 260 262 263 266 270 273 277 281 283 287 290 291 296 305 310 316 320 322 324 328 328 327 333 341 340 330 311 314 324 303 320 349 36 352 20 50 45 34 31 36 38
251 253 255 256 259 262 264 268 271 274 276 279 283 283 287 289 293 300 305 310 314 317 317 320 320 318 319 326 328 323 319 318 318 313 311 309 317 340 347 28 44 30 19 34 48
254 256 259 260 261 262 264 266 270 273 275 277 281 284 285 286 291 296 300 305 309 311 312 313 315 316 314 313 317 318 314 311 319 320 311 313 319 325 308 353 30 26 31 29 12
254 256 257 259 260 261 263 264 266 270 272 274 277 280 284 284 287 291 296 300 305 309 310 313 316 313 316 312 314 308 307 309 313 321 323 326 325 332 319 322 354 18 28 19 18
254 255 255 256 257 260 261 264 265 267 271 274 277 280 283 285 289 293 293 295 301 306 309 310 315 318 315 312 314 312 310 307 313 323 323 318 315 302 307 333 359 20 23 23 24
255 255 256 258 259 260 261 262 264 269 269 272 275 278 281 283 289 290 292 297 303 303 307 307 312 311 310 309 307 307 313 314 312 321 320 322 325 332 326 337 20 25 18 23 48
255 255 256 258 258 258 260 262 264 267 270 272 274 276 279 282 285 287 290 296 300 298 298 299 300 303 304 302 299 302 307 312 310 307 318 319 320 319 319 10 44 30 31 17 0
257 255 256 258 258 258 258 262 264 266 268 269 270 272 276 278 281 284 287 293 297 293 291 290 292 297 297 292 294 296 298 297 294 293 294 300 297 303 308 311 333 356 10 355 360
260 259 259 260 260 259 257 258 262 264 265 266 268 270 273 276 278 281 284 285 290 290 288 284 283 289 287 288 288 286 285 287 284 279 270 279 279 283 290 298 300 306 329 2 352
259 259 259 259 257 257 257 258 258 260 264 264 265 266 269 273 277 278 282 284 283 283 285 281 281 283 275 280 275 278 282 284 283 285 279 277 276 283 297 307 312 315 312 337 353
261 260 260 258 257 256 257 257 258 261 261 260 262 265 268 271 274 275 276 277 278 277 274 274 278 276 274 270 267 264 264 268 272 272 277 275 281 288 294 301 307 316 319 323 342
263 262 262 260 259 258 258 257 256 257 259 258 261 263 264 266 269 271 272 273 275 274 267 270 273 268 274 273 266 263 266 264 265 269 278 282 281 280 280 288 295 307 312 318 334
265 262 261 261 261 260 259 257 257 256 256 256 259 261 261 261 265 267 266 269 270 267 264 264 268 266 264 268 268 264 267 272 277 277 277 281 285 285 283 282 285 293 296 307 323
268 266 264 263 260 259 259 260 257 256 257 256 256 259 258 259 260 262 264 263 265 266 265 260 262 256 259 263 272 280 276 276 279 271 265 271 277 279 286 289 293 299 307 312 312
272 270 268 264 262 261 259 259 259 259 256 254 253 253 254 253 253 255 257 257 259 261 262 260 258 256 256 264 270 272 280 283 280 277 277 269 272 277 281 288 291 293 296 299 301
275 271 271 267 267 264 262 261 257 255 255 252 251 251 251 251 251 251 251 251 253 257 259 258 261 262 262 264 267 268 273 277 275 280 289 283 277 278 282 287 289 292 289 286 288
281 275 266 271 270 268 265 262 259 255 251 251 251 251 250 249 248 249 249 249 249 252 254 258 261 263 263 262 264 268 268 269 275 279 284 287 289 289 287 287 282 279 280 283 284
279 275 269 267 266 267 268 265 261 257 251 249 249 248 248 247 247 247 248 248 251 252 252 251 255 262 266 268 266 266 266 269 272 277 280 282 285 284 284 280 271 270 272 277 284
275 266 267 266 264 262 263 265 264 257 251 245 244 246 246 246 245 245 244 243 242 246 251 253 259 262 265 266 265 261 265 269 271 275 277 279 279 280 277 269 265 267 272 273 277
264 261 264 261 259 260 257 256 260 256 249 243 242 245 244 242 241 241 240 239 241 244 249 254 257 259 261 262 263 267 266 265 266 269 278 278 274 277 274 267 258 256 260 264 264
260 261 263 258 257 254 253 246 247 254 249 242 238 241 240 238 236 236 237 240 241 242 244 249 254 254 255 258 260 262 265 266 268 271 274 273 271 267 259 258 259 251 248 237 244
260 261 261 260 254 252 249 243 240 248 251 242 235 236 237 236 232 229 227 230 233 239 243 245 245 249 249 250 253 257 261 263 268 270 267 267 259 252 245 248 251 247 246 225 221
258 256 255 256 258 251 248 242 236 240 250 244 233 230 233 233 231 231 231 230 231 234 236 240 241 241 244 248 247 247 252 259 256 254 248 247 241 234 237 245 245 245 242 227 222
261 253 252 253 255 255 249 243 235 235 242 246 238 230 229 230 233 231 229 234 241 241 236 239 239 241 246 245 249 254 253 253 257 257 247 240 232 236 238 238 243 243 242 240 213
260 255 251 250 250 251 248 244 236 233 236 242 237 233 230 229 229 232 231 232 233 238 236 239 242 242 245 249 251 251 255 257 258 259 247 224 221 233 235 240 242 235 239 248 205
265 254 252 247 245 245 245 243 239 231 232 237 236 234 232 231 230 230 231 231 233 235 235 238 239 240 244 244 247 251 255 260 262 242 235 205 220 232 233 239 241 234 240 251 223
Height
10996 10998 11001 11002 11003 11005 11006 11007 11008 11008 11009 11010 11011 11012 11014 11015 11018 11017 11016 11014 11011 11007 11005 11006 11005 11003 11001 11000 11000 10998 10996 10998 10998 10996 10993 10992 10991 10991 10990 10987 10988 10985 10983 10982 10982
10990 10993 10995 10998 10999 11000 11002 11003 11004 11004 11005 11005 11008 11009 11010 11011 11013 11015 11014 11011 11009 11006 11005 11002 11001 11000 10999 10997 10996 10997 10996 10995 10995 10995 10993 10991 10991 10993 10992 10990 10988 10985 10985 10984 10983
10985 10987 10989 10992 10994 10996 10997 10998 10999 11000 11000 11001 11002 11005 11006 11007 11009 11010 11011 11009 11008 11003 11001 11000 10999 10999 10998 10997 10995 10993 10995 10993 10994 10993 10992 10992 10991 10990 10991 10990 10987 10985 10984 10984 10983
10978 10981 10983 10986 10988 10990 10991 10993 10993 10995 10995 10996 10997 10998 11000 11001 11005 11005 11007 11006 11005 11001 10997 10996 10996 10996 10995 10993 10994 10992 10990 10992 10991 10990 10990 10991 10990 10990 10990 10990 10988 10984 10983 10983 10982
10973 10975 10977 10980 10982 10983 10985 10986 10988 10988 10989 10989 10991 10993 10994 10995 10999 11001 11001 11002 11001 10999 10994 10994 10993 10992 10991 10989 10989 10990 10989 10988 10988 10988 10988 10988 10989 10988 10987 10988 10989 10986 10983 10982 10981
10966 10968 10971 10973 10976 10977 10978 10980 10981 10982 10983 10983 10985 10987 10989 10989 10993 10994 10995 10995 10997 10997 10993 10990 10990 10988 10987 10985 10985 10986 10986 10986 10984 10984 10984 10986 10987 10989 10987 10987 10985 10984 10983 10982 10981
10958 10961 10963 10966 10969 10970 10972 10973 10975 10976 10977 10977 10978 10981 10984 10983 10988 10988 10990 10991 10992 10993 10990 10986 10988 10987 10985 10982 10982 10982 10983 10982 10982 10981 10981 10983 10984 10986 10987 10987 10984 10981 10981 10982 10981
10949 10952 10955 10957 10960 10961 10963 10965 10967 10969 10970 10971 10972 10974 10979 10977 10982 10982 10985 10987 10988 10988 10987 10985 10984 10986 10983 10982 10978 10981 10981 10980 10978 10978 10978 10979 10981 10982 10983 10982 10982 10983 10982 10982 10983
10939 10941 10944 10947 10950 10950 10953 10955 10958 10960 10961 10963 10964 10967 10971 10970 10974 10976 10978 10981 10983 10982 10982 10982 10981 10983 10980 10980 10977 10977 10978 10978 10978 10978 10978 10978 10978 10979 10980 10980 10981 10981 10982 10981 10979
10929 10932 10934 10937 10939 10939 10942 10945 10948 10950 10953 10954 10956 10959 10961 10962 10965 10969 10970 10974 10977 10977 10977 10977 10978 10979 10977 10976 10975 10974 10975 10975 10975 10976 10977 10976 10976 10976 10976 10978 10979 10979 10979 10979 10978
10917 10920 10921 10925 10927 10928 10931 10935 10938 10940 10943 10946 10947 10949 10951 10953 10956 10961 10961 10965 10969 10971 10971 10970 10972 10975 10974 10972 10974 10970 10971 10971 10972 10973 10974 10973 10972 10972 10974 10974 10973 10972 10975 10976 10974
10907 10909 10911 10913 10915 10916 10919 10923 10926 10928 10932 10936 10937 10940 10943 10944 10946 10952 10954 10956 10961 10965 10966 10964 10968 10969 10967 10969 10970 10970 10970 10969 10969 10970 10969 10969 10969 10969 10969 10970 10969 10969 10968 10970 10971
10897 10899 10900 10902 10904 10905 10908 10911 10914 10917 10919 10927 10926 10931 10934 10935 10937 10941 10947 10948 10953 10958 10959 10960 10963 10964 10962 10960 10963 10966 10966 10966 10966 10966 10965 10963 10965 10967 10966 10965 10965 10967 10966 10964 10966
10887 10889 10890 10891 10893 10894 10897 10899 10903 10906 10910 10916 10917 10922 10923 10926 10929 10932 10938 10942 10944 10948 10952 10955 10956 10959 10958 10953 10956 10961 10961 10961 10962 10962 10961 10959 10958 10960 10961 10962 10963 10964 10964 10963 10961
10878 10879 10880 10881 10882 10885 10887 10889 10892 10896 10900 10906 10908 10909 10912 10918 10921 10922 10928 10933 10935 10938 10943 10947 10951 10952 10949 10949 10949 10954 10954 10956 10957 10956 10957 10956 10952 10953 10954 10956 10957 10957 10957 10958 10958
10869 10871 10872 10870 10872 10876 10877 10880 10883 10887 10890 10894 10896 10898 10902 10907 10910 10913 10917 10923 10926 10930 10931 10937 10940 10941 10943 10945 10944 10948 10949 10949 10949 10949 10953 10951 10948 10948 10949 10948 10950 10952 10951 10952 10952
10862 10863 10864 10861 10864 10866 10868 10871 10874 10877 10878 10882 10884 10887 10891 10896 10900 10904 10907 10912 10917 10919 10921 10926 10929 10933 10937 10939 10939 10942 10944 10943 10943 10944 10946 10944 10944 10944 10944 10945 10942 10944 10945 10946 10946
10855 10855 10857 10854 10858 10857 10860 10862 10865 10865 10869 10871 10875 10878 10882 10886 10890 10894 10899 10904 10908 10911 10912 10917 10918 10920 10926 10931 10934 10936 10937 10937 10936 10940 10941 10937 10934 10936 10938 10940 10938 10937 10936 10938 10942
10847 10846 10847 10848 10849 10849 10853 10855 10856 10857 10860 10864 10867 10868 10872 10877 10881 10886 10891 10896 10901 10902 10904 10908 10910 10912 10917 10922 10926 10928 10930 10930 10931 10932 10934 10934 10929 10929 10932 10934 10930 10928 10931 10933 10935
10838 10837 10838 10839 10840 10841 10845 10848 10849 10848 10851 10854 10857 10860 10863 10868 10872 10876 10881 10887 10890 10891 10895 10899 10903 10905 10909 10913 10916 10918 10921 10924 10923 10924 10926 10927 10924 10924 10924 10923 10921 10923 10924 10927 10930
10827 10828 10828 10829 10832 10832 10836 10842 10841 10839 10843 10847 10850 10852 10855 10859 10863 10866 10870 10876 10881 10883 10887 10891 10896 10899 10901 10905 10906 10910 10913 10916 10917 10917 10917 10919 10916 10918 10915 10911 10912 10918 10918 10923 10925
10815 10817 10818 10820 10822 10823 10827 10833 10833 10831 10834 10839 10843 10844 10848 10851 10854 10857 10862 10866 10871 10874 10877 10883 10888 10890 10893 10896 10899 10903 10905 10907 10909 10911 10911 10911 10907 10909 10907 10902 10905 10911 10913 10919 10922
10802 10804 10805 10808 10811 10814 10817 10823 10827 10825 10825 10831 10836 10838 10840 10843 10846 10849 10853 10859 10862 10865 10869 10875 10878 10881 10883 10886 10891 10895 10897 10899 10901 10902 10902 10902 10900 10901 10900 10896 10901 10904 10911 10916 10919
10789 10791 10793 10796 10800 10804 10807 10813 10818 10818 10817 10823 10828 10831 10834 10836 10839 10843 10848 10851 10854 10858 10864 10867 10871 10873 10876 10880 10884 10887 10890 10892 10893 10894 10895 10895 10895 10894 10891 10895 10896 10901 10905 10912 10918
10774 10777 10780 10784 10788 10793 10798 10802 10809 10811 10810 10813 10820 10824 10827 10831 10834 10838 10842 10846 10850 10856 10858 10860 10865 10868 10871 10875 10877 10881 10882 10883 10885 10886 10888 10889 10889 10887 10889 10890 10893 10898 10902 10907 10914
10760 10763 10767 10770 10775 10780 10786 10791 10798 10802 10802 10803 10813 10816 10819 10823 10828 10833 10837 10840 10845 10849 10852 10854 10859 10862 10864 10868 10869 10872 10873 10875 10877 10879 10881 10884 10883 10881 10884 10886 10890 10894 10898 10903 10910
10747 10750 10753 10756 10760 10766 10773 10778 10785 10789 10794 10795 10804 10808 10811 10816 10820 10826 10831 10835 10838 10843 10847 10851 10854 10856 10859 10860 10861 10864 10864 10866 10869 10872 10875 10879 10875 10875 10880 10882 10887 10891 10895 10900 10907